Meridian NAS, MS

5:56 PM CST on December 16, 2017 (GMT -0600)
Meridian Naval Air Station

Weather History for KNMM - April, 2012

Change the Weather History Date:

Monday, April 30, 2012

  Actual Average Record
Temperature  
Mean Temperature 76 °F -  
Max Temperature 91 °F 77 °F 91 °F (2012)
Min Temperature 61 °F 56 °F 43 °F (2008)
Cooling Degree Days 10    
Growing Degree Days 26 (Base 50)    
Moisture  
Dew Point 63 °F    
Average Humidity 71    
Maximum Humidity 96    
Minimum Humidity 35    
Precipitation  
Precipitation 0.00 in - - ()
Sea Level Pressure  
Sea Level Pressure 30.12 in    
Wind  
Wind Speed 1 mph (SSW)    
Max Wind Speed 9 mph    
Max Gust Speed -    
Visibility 10 miles    
Events      
Averages and records for this station are not official NWS values.
T = Trace of Precipitation, MM = Missing Value Source: NWS Daily Summary

Daily Weather History Graph

Daily Weather History Graph

Search for Another Location

Airport or City:

Trip Planner

Search our weather history database for the weather conditions in past years. The results will help you decide how hot, cold, wet, or windy it might be!

Date:

Astronomy

Apr. 30, 2012 Rise Set
Actual Time 6:07 AM CDT 7:35 PM CDT
Civil Twilight 5:41 AM CDT 8:01 PM CDT
Nautical Twilight 5:10 AM CDT 8:32 PM CDT
Astronomical Twilight 4:37 AM CDT 9:05 PM CDT
Moon 1:51 PM CDT (4/30) 2:11 AM CDT (4/30)
Length of Visible Light 14h 19m
Length of Day
13h 27m
Waxing Gibbous, 64% of the Moon is Illuminated
Apr 30
Waxing Gibbous
May 5
Full
May 12
Last Quarter
May 20
New
May 28
First Quarter

Hourly Weather History & Observations

Time (CDT) Temp. Heat Index Dew Point Humidity Pressure Visibility Wind Dir Wind Speed Gust Speed Precip Events Conditions
12:56 AM 64.9 °F - 63.0 °F 93% 30.13 in 10.0 mi Calm Calm - N/A   Clear
1:56 AM 64.0 °F - 63.0 °F 96% 30.10 in 10.0 mi Calm Calm - N/A   Clear
2:56 AM 62.1 °F - 60.1 °F 93% 30.09 in 10.0 mi Calm Calm - N/A   Clear
3:56 AM 63.0 °F - 61.0 °F 93% 30.10 in 10.0 mi Calm Calm - N/A   Clear
4:56 AM 63.0 °F - 60.1 °F 90% 30.11 in 10.0 mi Calm Calm - N/A   Clear
5:56 AM 61.0 °F - 57.9 °F 90% 30.14 in 10.0 mi Calm Calm - N/A   Clear
6:56 AM 62.1 °F - 61.0 °F 96% 30.17 in 6.0 mi Calm Calm - N/A   Clear
7:56 AM 69.1 °F - 66.0 °F 90% 30.17 in 7.0 mi Calm Calm - N/A   Partly Cloudy
8:56 AM 75.0 °F - 66.9 °F 76% 30.17 in 10.0 mi Calm Calm - N/A   Partly Cloudy
9:56 AM 80.1 °F 81.9 °F 64.9 °F 60% 30.17 in 10.0 mi Variable 3.5 mph - N/A   Scattered Clouds
10:56 AM 82.9 °F 84.4 °F 64.0 °F 53% 30.17 in 10.0 mi Variable 4.6 mph - N/A   Mostly Cloudy
11:56 AM 84.9 °F 85.9 °F 63.0 °F 48% 30.16 in 10.0 mi South 3.5 mph - N/A   Mostly Cloudy
12:56 PM 84.9 °F 85.4 °F 62.1 °F 46% 30.14 in 10.0 mi Variable 4.6 mph - N/A   Mostly Cloudy
1:56 PM 86.0 °F 86.3 °F 62.1 °F 44% 30.14 in 10.0 mi Calm Calm - N/A   Mostly Cloudy
2:56 PM 90.0 °F 89.1 °F 59.0 °F 35% 30.11 in 10.0 mi SSW 9.2 mph - N/A   Scattered Clouds
3:56 PM 90.0 °F 89.7 °F 60.1 °F 37% 30.07 in 10.0 mi SSW 3.5 mph - N/A   Scattered Clouds
4:56 PM 87.1 °F 87.5 °F 62.1 °F 43% 30.07 in 10.0 mi WSW 4.6 mph - N/A   Mostly Cloudy
5:56 PM 86.0 °F 86.8 °F 63.0 °F 46% 30.07 in 10.0 mi Calm Calm - N/A   Mostly Cloudy
6:56 PM 84.0 °F 86.5 °F 66.9 °F 56% 30.07 in 10.0 mi Calm Calm - N/A   Mostly Cloudy
7:56 PM 75.9 °F - 68.0 °F 76% 30.08 in 10.0 mi Calm Calm - N/A   Mostly Cloudy
8:56 PM 75.0 °F - 68.0 °F 79% 30.09 in 10.0 mi Calm Calm - N/A   Scattered Clouds
9:56 PM 72.0 °F - 66.9 °F 84% 30.09 in 10.0 mi Calm Calm - N/A   Clear
10:56 PM 69.1 °F - 66.0 °F 90% 30.09 in 10.0 mi Calm Calm - N/A   Clear
11:56 PM 68.0 °F - 64.9 °F 90% 30.06 in 10.0 mi Calm Calm - N/A   Clear